This demonstration page uses our WeatherBlox Daily Observations layout. Learn more.

36.17497, -115.13722

Hourly Observations for January 14, 2020

Temp ( °F °C ) Dew Point ( °F °C ) Humidity (%) Winds ( mph kmh ) Pressure ( in mb ) Visibility ( mi km ) Precip ( " mm )
12:53 am 00:53 Clear 38 3.3 25 -3.9 60 60 Calm 30.07 1018 10 16.0934 0 0
1:53 am 01:53 Clear 38 3.3 25 -3.9 60 60 NW 7 11 30.08 1019 10 16.0934 0 0
2:53 am 02:53 Clear 38 3.3 25 -3.9 60 60 NNW 8 13 30.08 1019 10 16.0934 0 0
3:53 am 03:53 Clear 37 2.8 24 -4.4 59 59 NW 6 9 30.08 1019 10 16.0934 0 0
4:53 am 04:53 Clear 36 2.2 24 -4.4 62 62 NW 5 7 30.08 1019 10 16.0934 0 0
5:53 am 05:53 Clear 35 1.7 24 -4.4 64 64 WNW 3 6 30.08 1019 10 16.0934 0 0
6:53 am 06:53 Sunny 35 1.7 25 -3.9 67 67 N 5 7 30.08 1019 10 16.0934 0 0
7:53 am 07:53 Sunny 37 2.8 25 -3.9 62 62 WNW 6 9 30.09 1019 10 16.0934 0 0
8:53 am 08:53 Sunny 43 6.1 26 -3.3 51 51 NNW 5 7 30.1 1019 10 16.0934 0 0
9:53 am 09:53 Sunny 48 8.9 27 -2.8 44 44 VRB 3 6 30.11 1020 10 16.0934 0 0
10:53 am 10:53 Sunny 52 11.1 29 -1.7 41 41 VRB 3 6 30.09 1019 10 16.0934 0 0
11:53 am 11:53 Sunny 53 11.7 28 -2.2 38 38 ENE 5 7 30.06 1018 10 16.0934 0 0
12:53 pm 12:53 Sunny 54 12.2 27 -2.8 35 35 E 3 6 30.02 1017 10 16.0934 0 0
1:53 pm 13:53 Sunny 56 13.3 27 -2.8 33 33 VRB 3 6 30.01 1016 10 16.0934 0 0
2:53 pm 14:53 Sunny 57 13.9 27 -2.8 32 32 ENE 5 7 30 1016 10 16.0934 0 0
3:53 pm 15:53 Sunny 57 13.9 27 -2.8 32 32 Calm 30.01 1016 10 16.0934 0 0
4:53 pm 16:53 Clear 56 13.3 28 -2.2 34 34 Calm 30.03 1017 10 16.0934 0 0
5:53 pm 17:53 Clear 53 11.7 27 -2.8 37 37 N 5 7 30.05 1018 10 16.0934 0 0
6:53 pm 18:53 Clear 49 9.4 27 -2.8 43 43 Calm 30.05 1018 10 16.0934 0 0
7:53 pm 19:53 Clear 47 8.3 27 -2.8 46 46 Calm 30.07 1018 10 16.0934 0 0
8:53 pm 20:53 Clear 43 6.1 27 -2.8 53 53 NNW 6 9 30.08 1019 10 16.0934 0 0
9:53 pm 21:53 Clear 42 5.6 27 -2.8 55 55 NW 5 7 30.09 1019 10 16.0934 0 0
10:53 pm 22:53 Clear 41 5 27 -2.8 57 57 NNW 5 7 30.09 1019 10 16.0934 0 0
11:53 pm 23:53 Clear 40 4.4 26 -3.3 58 58 WNW 7 11 30.08 1019 10 16.0934 0 0

Powered by AerisWeather